Current Weather Conditions: station LGAV

sailwx.info

See reports from other nearby stations

no recent reports received from weather station ID LGAV

Tides Pressure Air temp Water temp Dewpoint Dewpoint depression Visibility Wind speed Wind direction Waves Ship positions
date/time (UTC)wind fromknots sea level pressurealtimeterstation pressurevisibilityair tempwater tempwave heightnotes
2014-Jul-29 21:20 250 4 26.0
2014-Jul-29 20:50 240 6 26.0
2014-Jul-29 20:20 230 3 26.0
2014-Jul-29 19:50 230 5 26.0
2014-Jul-29 19:20 210 4 27.0
2014-Jul-29 18:50 210 3 27.0
2014-Jul-29 18:20 180 4 27.0
2014-Jul-29 17:50 28.0
2014-Jul-29 17:20 020 4 28.0
2014-Jul-29 16:50 030 4 29.0
2014-Jul-29 16:20 050 5 29.0
2014-Jul-29 15:50 070 7 5.429.0
2014-Jul-29 15:20 050 9 5.430.0
2014-Jul-29 14:50 090 7 5.430.0
2014-Jul-29 14:20 120 8 5.431.0
2014-Jul-29 13:50 090 7 5.432.0
2014-Jul-29 13:20 080 7 5.433.0
2014-Jul-29 12:50 100 7 5.434.0
2014-Jul-29 12:20 090 7 5.433.0
2014-Jul-29 11:50 070 9 5.433.0
2014-Jul-29 11:20 050 10 5.433.0
2014-Jul-29 10:50 060 10 5.432.0
2014-Jul-29 10:20 060 10 5.433.0
2014-Jul-29 09:50 060 10 5.432.0
2014-Jul-29 09:20 060 9 5.433.0
2014-Jul-29 08:50 5.432.0
2014-Jul-29 08:20 5.431.0
2014-Jul-29 07:50 30.0
2014-Jul-29 07:20 30.0
2014-Jul-29 06:50 29.0
2014-Jul-29 06:20 28.0
2014-Jul-29 05:50 27.0
2014-Jul-29 05:20 25.0
2014-Jul-29 04:50 25.0
2014-Jul-29 04:20 23.0
2014-Jul-29 03:50 230 2 22.0
2014-Jul-29 03:20 310 2 23.0
2014-Jul-29 02:50 260 3 22.0
2014-Jul-29 02:20 280 3 22.0
2014-Jul-29 01:50 22.0
2014-Jul-29 01:20 280 2 23.0
2014-Jul-29 00:50 320 3 23.0
2014-Jul-29 00:20 280 3 23.0
2014-Jul-28 23:50 220 2 24.0
2014-Jul-28 23:20 24.0
2014-Jul-28 22:50 24.0
2014-Jul-28 22:20 25.0
2014-Jul-28 21:50 280 2 25.0
2014-Jul-28 21:20 330 2 26.0
2014-Jul-28 20:50 360 4 25.0
2014-Jul-28 20:20 350 2 25.0
2014-Jul-28 19:50 350 4 25.0
2014-Jul-28 19:20 010 5 26.0
2014-Jul-28 18:50 28.0
2014-Jul-28 18:20 210 3 28.0
2014-Jul-28 17:50 220 3 28.0
2014-Jul-28 17:20 220 4 29.0
2014-Jul-28 16:50 220 8 30.0
2014-Jul-28 16:20 220 11 30.0
2014-Jul-28 15:50 210 11 31.0
2014-Jul-28 15:20 200 12 32.0
2014-Jul-28 14:50 190 13 32.0
2014-Jul-28 14:20 200 14 33.0
2014-Jul-28 13:50 200 13 33.0
2014-Jul-28 13:20 210 13 33.0
2014-Jul-28 12:50 190 13 34.0
2014-Jul-28 12:20 180 13 34.0
2014-Jul-28 11:50 190 12 34.0
2014-Jul-28 11:20 190 11 34.0
2014-Jul-28 10:50 190 9 35.0
2014-Jul-28 10:20 210 10 33.0
2014-Jul-28 09:50 170 7 32.0
2014-Jul-28 09:20 110 6 32.0
2014-Jul-28 08:50 120 5 32.0
2014-Jul-28 08:20 170 4 32.0
2014-Jul-28 07:50 31.0
2014-Jul-28 07:20 30.0
2014-Jul-28 06:50 29.0
2014-Jul-28 06:20 28.0
2014-Jul-28 05:50 27.0
2014-Jul-28 05:20 26.0
2014-Jul-28 04:50 25.0
2014-Jul-28 04:20 310 1 22.0
2014-Jul-28 03:50 21.0
2014-Jul-28 03:20 210 2 20.0
2014-Jul-28 02:50 20.0
2014-Jul-28 02:20 22.0
2014-Jul-28 01:50 22.0
2014-Jul-28 01:20 230 1 23.0
2014-Jul-28 00:50 280 3 24.0
2014-Jul-28 00:20 290 4 24.0
2014-Jul-27 23:50 23.0
2014-Jul-27 23:20 290 3 24.0
2014-Jul-27 22:50 270 2 24.0
2014-Jul-27 22:20 270 3 25.0